Time,TemperatureF,DewpointF,PressureIn,WindDirection,WindDirectionDegrees,WindSpeedMPH,WindSpeedGustMPH,Humidity,HourlyPrecipIn,Conditions,Clouds,dailyrainin,SoftwareType,DateUTC
2013-04-28 00:00:00,45.1,28.5,30.31,NW,314,0.0,7.0,52,0.00,,,0.00,Wunderground v.1.15,2013-04-28 04:00:00,
2013-04-28 00:10:00,45.2,27.6,30.31,NW,314,0.0,0.0,50,0.00,,,0.00,Wunderground v.1.15,2013-04-28 04:10:00,
2013-04-28 00:20:00,44.9,27.8,30.31,NW,314,0.0,0.0,51,0.00,,,0.00,Wunderground v.1.15,2013-04-28 04:20:00,
2013-04-28 00:30:00,44.1,27.6,30.31,NW,314,0.0,0.0,52,0.00,,,0.00,Wunderground v.1.15,2013-04-28 04:30:00,
2013-04-28 00:40:00,43.5,27.5,30.31,NW,314,0.0,0.0,53,0.00,,,0.00,Wunderground v.1.15,2013-04-28 04:40:00,
2013-04-28 00:50:00,43.1,28.5,30.31,NW,314,0.0,0.0,56,0.00,,,0.00,Wunderground v.1.15,2013-04-28 04:50:00,
2013-04-28 01:00:00,42.3,28.1,30.31,NW,314,0.0,0.0,57,0.00,,,0.00,Wunderground v.1.15,2013-04-28 05:00:00,
2013-04-28 01:10:00,42.1,28.4,30.31,NW,314,0.0,0.0,58,0.00,,,0.00,Wunderground v.1.15,2013-04-28 05:10:00,
2013-04-28 01:20:00,41.5,28.2,30.31,NW,314,0.0,0.0,59,0.00,,,0.00,Wunderground v.1.15,2013-04-28 05:20:00,
2013-04-28 01:30:00,41.2,27.9,30.31,NW,314,0.0,0.0,59,0.00,,,0.00,Wunderground v.1.15,2013-04-28 05:30:00,
2013-04-28 01:40:00,41.6,27.9,30.31,NW,314,0.0,0.0,58,0.00,,,0.00,Wunderground v.1.15,2013-04-28 05:40:00,
2013-04-28 01:50:00,41.8,28.1,30.31,NW,314,0.0,0.0,58,0.00,,,0.00,Wunderground v.1.15,2013-04-28 05:50:00,
2013-04-28 02:00:00,41.5,28.2,30.31,NW,314,0.0,0.0,59,0.00,,,0.00,Wunderground v.1.15,2013-04-28 06:00:00,
2013-04-28 02:10:00,40.8,28.0,30.30,NW,314,0.0,0.0,60,0.00,,,0.00,Wunderground v.1.15,2013-04-28 06:10:00,
2013-04-28 02:20:00,40.3,27.9,30.30,NW,314,0.0,0.0,61,0.00,,,0.00,Wunderground v.1.15,2013-04-28 06:20:00,
2013-04-28 02:30:00,40.3,28.3,30.30,NW,314,0.0,0.0,62,0.00,,,0.00,Wunderground v.1.15,2013-04-28 06:30:00,
2013-04-28 02:40:00,40.1,28.1,30.30,NW,314,0.0,0.0,62,0.00,,,0.00,Wunderground v.1.15,2013-04-28 06:40:00,
2013-04-28 02:50:00,40.1,28.5,30.30,NW,314,0.0,0.0,63,0.00,,,0.00,Wunderground v.1.15,2013-04-28 06:50:00,
2013-04-28 03:00:00,39.9,28.7,30.30,NW,314,0.0,0.0,64,0.00,,,0.00,Wunderground v.1.15,2013-04-28 07:00:00,
2013-04-28 03:10:00,39.6,28.8,30.29,NW,314,0.0,0.0,65,0.00,,,0.00,Wunderground v.1.15,2013-04-28 07:10:00,
2013-04-28 03:20:00,39.3,28.5,30.29,NW,314,0.0,0.0,65,0.00,,,0.00,Wunderground v.1.15,2013-04-28 07:20:00,
2013-04-28 03:30:00,39.6,28.4,30.29,NW,314,0.0,0.0,64,0.00,,,0.00,Wunderground v.1.15,2013-04-28 07:30:00,
2013-04-28 03:40:00,40.1,28.5,30.29,NW,314,0.0,0.0,63,0.00,,,0.00,Wunderground v.1.15,2013-04-28 07:40:00,
2013-04-28 03:50:00,39.3,28.1,30.29,NW,314,0.0,0.0,64,0.00,,,0.00,Wunderground v.1.15,2013-04-28 07:50:00,
2013-04-28 04:00:00,39.1,29.1,30.29,NW,314,0.0,0.0,67,0.00,,,0.00,Wunderground v.1.15,2013-04-28 08:00:00,
2013-04-28 04:10:00,39.1,28.7,30.29,NW,314,0.0,0.0,66,0.00,,,0.00,Wunderground v.1.15,2013-04-28 08:10:00,
2013-04-28 04:20:00,39.8,29.0,30.28,NW,314,0.0,0.0,65,0.00,,,0.00,Wunderground v.1.15,2013-04-28 08:20:00,
2013-04-28 04:30:00,39.6,28.8,30.28,NW,314,0.0,0.0,65,0.00,,,0.00,Wunderground v.1.15,2013-04-28 08:30:00,
2013-04-28 04:40:00,38.8,28.4,30.28,NW,314,0.0,0.0,66,0.00,,,0.00,Wunderground v.1.15,2013-04-28 08:40:00,
2013-04-28 04:50:00,38.3,28.7,30.28,NW,314,0.0,0.0,68,0.00,,,0.00,Wunderground v.1.15,2013-04-28 08:50:00,
2013-04-28 05:00:00,38.2,28.2,30.28,NW,314,0.0,0.0,67,0.00,,,0.00,Wunderground v.1.15,2013-04-28 09:00:00,
2013-04-28 05:10:00,38.3,28.7,30.28,NW,314,0.0,0.0,68,0.00,,,0.00,Wunderground v.1.15,2013-04-28 09:10:00,
2013-04-28 05:20:00,38.0,28.4,30.28,NW,314,0.0,0.0,68,0.00,,,0.00,Wunderground v.1.15,2013-04-28 09:20:00,
2013-04-28 05:30:00,38.0,28.7,30.28,NW,314,0.0,0.0,69,0.00,,,0.00,Wunderground v.1.15,2013-04-28 09:30:00,
2013-04-28 05:40:00,37.8,28.9,30.28,NW,314,0.0,0.0,70,0.00,,,0.00,Wunderground v.1.15,2013-04-28 09:40:00,
2013-04-28 05:50:00,37.6,28.3,30.28,NW,314,0.0,0.0,69,0.00,,,0.00,Wunderground v.1.15,2013-04-28 09:50:00,
2013-04-28 06:00:00,38.0,28.7,30.28,NW,314,0.0,0.0,69,0.00,,,0.00,Wunderground v.1.15,2013-04-28 10:00:00,
2013-04-28 06:10:00,38.2,28.6,30.28,NW,314,0.0,0.0,68,0.00,,,0.00,Wunderground v.1.15,2013-04-28 10:10:00,
2013-04-28 06:20:00,37.8,28.5,30.28,NW,314,0.0,0.0,69,0.00,,,0.00,Wunderground v.1.15,2013-04-28 10:20:00,
2013-04-28 06:30:00,37.2,28.3,30.28,NW,314,0.0,0.0,70,0.00,,,0.00,Wunderground v.1.15,2013-04-28 10:30:00,
2013-04-28 06:40:00,37.2,28.7,30.29,NW,314,0.0,0.0,71,0.00,,,0.00,Wunderground v.1.15,2013-04-28 10:40:00,
2013-04-28 06:50:00,39.1,29.1,30.29,NW,314,0.0,0.0,67,0.00,,,0.00,Wunderground v.1.15,2013-04-28 10:50:00,
2013-04-28 07:00:00,38.6,29.3,30.29,NW,314,0.0,0.0,69,0.00,,,0.00,Wunderground v.1.15,2013-04-28 11:00:00,
2013-04-28 07:10:00,38.5,28.9,30.29,NW,314,0.0,0.0,68,0.00,,,0.00,Wunderground v.1.15,2013-04-28 11:10:00,
2013-04-28 07:20:00,38.6,29.7,30.31,NW,314,0.0,0.0,70,0.00,,,0.00,Wunderground v.1.15,2013-04-28 11:20:00,
2013-04-28 07:30:00,38.9,29.6,30.31,NW,314,0.0,0.0,69,0.00,,,0.00,Wunderground v.1.15,2013-04-28 11:30:00,
2013-04-28 07:40:00,39.1,29.8,30.31,NW,314,0.0,0.0,69,0.00,,,0.00,Wunderground v.1.15,2013-04-28 11:40:00,
2013-04-28 07:50:00,40.1,29.6,30.31,NW,314,0.0,0.0,66,0.00,,,0.00,Wunderground v.1.15,2013-04-28 11:50:00,
2013-04-28 08:00:00,42.2,29.7,30.31,NW,314,0.0,0.0,61,0.00,,,0.00,Wunderground v.1.15,2013-04-28 12:00:00,
2013-04-28 08:10:00,44.1,30.7,30.32,NW,314,0.0,0.0,59,0.00,,,0.00,Wunderground v.1.15,2013-04-28 12:10:00,
2013-04-28 08:20:00,46.2,30.5,30.32,NW,314,0.0,0.0,54,0.00,,,0.00,Wunderground v.1.15,2013-04-28 12:20:00,
2013-04-28 08:30:00,48.3,32.9,30.32,NW,314,0.0,0.0,55,0.00,,,0.00,Wunderground v.1.15,2013-04-28 12:30:00,
2013-04-28 08:40:00,50.2,31.8,30.31,NW,314,0.0,0.0,49,0.00,,,0.00,Wunderground v.1.15,2013-04-28 12:40:00,
2013-04-28 08:50:00,51.9,34.8,30.31,NW,314,0.0,0.0,52,0.00,,,0.00,Wunderground v.1.15,2013-04-28 12:50:00,
2013-04-28 09:00:00,53.6,34.9,30.31,NW,314,0.0,0.0,49,0.00,,,0.00,Wunderground v.1.15,2013-04-28 13:00:00,
2013-04-28 09:10:00,55.3,33.7,30.31,NW,314,0.0,0.0,44,0.00,,,0.00,Wunderground v.1.15,2013-04-28 13:10:00,
2013-04-28 09:20:00,57.0,32.9,30.30,NW,314,0.0,0.0,40,0.00,,,0.00,Wunderground v.1.15,2013-04-28 13:20:00,
2013-04-28 09:30:00,58.9,32.0,30.30,WSW,250,0.0,0.0,36,0.00,,,0.00,Wunderground v.1.15,2013-04-28 13:30:00,
2013-04-28 09:40:00,59.8,32.8,30.30,WSW,250,0.0,0.0,36,0.00,,,0.00,Wunderground v.1.15,2013-04-28 13:40:00,
2013-04-28 09:50:00,60.5,35.4,30.30,WSW,250,0.0,0.0,39,0.00,,,0.00,Wunderground v.1.15,2013-04-28 13:50:00,
2013-04-28 10:00:00,61.3,30.4,30.30,WSW,249,0.0,0.0,31,0.00,,,0.00,Wunderground v.1.15,2013-04-28 14:00:00,
2013-04-28 10:10:00,62.6,30.7,30.29,SW,235,0.0,0.0,30,0.00,,,0.00,Wunderground v.1.15,2013-04-28 14:10:00,
2013-04-28 10:20:00,63.2,34.3,30.29,South,170,1.0,4.0,34,0.00,,,0.00,Wunderground v.1.15,2013-04-28 14:20:00,
2013-04-28 10:30:00,63.7,34.8,30.29,South,171,1.0,1.0,34,0.00,,,0.00,Wunderground v.1.15,2013-04-28 14:30:00,
2013-04-28 10:40:00,64.2,33.7,30.29,SW,234,1.0,3.0,32,0.00,,,0.00,Wunderground v.1.15,2013-04-28 14:40:00,
2013-04-28 10:50:00,63.7,31.7,30.28,WSW,255,2.0,3.0,30,0.00,,,0.00,Wunderground v.1.15,2013-04-28 14:50:00,
2013-04-28 11:00:00,64.5,33.2,30.28,SSW,208,1.0,3.0,31,0.00,,,0.00,Wunderground v.1.15,2013-04-28 15:00:00,
2013-04-28 11:10:00,65.3,32.2,30.28,South,190,2.0,2.0,29,0.00,,,0.00,Wunderground v.1.15,2013-04-28 15:10:00,
2013-04-28 11:20:00,66.0,31.9,30.27,SW,217,1.0,1.0,28,0.00,,,0.00,Wunderground v.1.15,2013-04-28 15:20:00,
2013-04-28 11:30:00,67.1,32.9,30.27,ESE,116,1.0,1.0,28,0.00,,,0.00,Wunderground v.1.15,2013-04-28 15:30:00,
2013-04-28 11:40:00,66.8,32.6,30.27,South,174,1.0,1.0,28,0.00,,,0.00,Wunderground v.1.15,2013-04-28 15:40:00,
2013-04-28 11:50:00,67.8,34.4,30.27,SE,142,2.0,3.0,29,0.00,,,0.00,Wunderground v.1.15,2013-04-28 15:50:00,
2013-04-28 12:00:00,68.4,34.0,30.27,SSE,153,2.0,2.0,28,0.00,,,0.00,Wunderground v.1.15,2013-04-28 16:00:00,
2013-04-28 12:10:00,68.6,32.3,30.26,SSW,193,2.0,5.0,26,0.00,,,0.00,Wunderground v.1.15,2013-04-28 16:10:00,
2013-04-28 12:20:00,68.8,34.3,30.26,SW,227,2.0,2.0,28,0.00,,,0.00,Wunderground v.1.15,2013-04-28 16:20:00,
2013-04-28 12:30:00,69.3,31.9,30.26,WSW,240,2.0,2.0,25,0.00,,,0.00,Wunderground v.1.15,2013-04-28 16:30:00,
2013-04-28 12:40:00,68.4,34.0,30.25,SW,226,1.0,1.0,28,0.00,,,0.00,Wunderground v.1.15,2013-04-28 16:40:00,
2013-04-28 12:50:00,67.8,33.5,30.24,WSW,256,2.0,2.0,28,0.00,,,0.00,Wunderground v.1.15,2013-04-28 16:50:00,
2013-04-28 13:00:00,69.6,31.2,30.24,SSW,212,1.0,3.0,24,0.00,,,0.00,Wunderground v.1.15,2013-04-28 17:00:00,
2013-04-28 13:10:00,68.9,30.6,30.23,SSE,157,3.0,3.0,24,0.00,,,0.00,Wunderground v.1.15,2013-04-28 17:10:00,
2013-04-28 13:20:00,69.9,33.4,30.23,SSW,206,1.0,1.0,26,0.00,,,0.00,Wunderground v.1.15,2013-04-28 17:20:00,
2013-04-28 13:30:00,69.6,33.2,30.23,WSW,248,2.0,2.0,26,0.00,,,0.00,Wunderground v.1.15,2013-04-28 17:30:00,
2013-04-28 13:40:00,69.8,31.4,30.22,SSW,206,1.0,10.0,24,0.00,,,0.00,Wunderground v.1.15,2013-04-28 17:40:00,
2013-04-28 13:50:00,70.4,29.7,30.21,SSW,195,2.0,10.0,22,0.00,,,0.00,Wunderground v.1.15,2013-04-28 17:50:00,
2013-04-28 14:00:00,70.3,29.6,30.21,SW,223,1.0,1.0,22,0.00,,,0.00,Wunderground v.1.15,2013-04-28 18:00:00,
2013-04-28 14:10:00,70.4,33.9,30.21,SE,142,2.0,2.0,26,0.00,,,0.00,Wunderground v.1.15,2013-04-28 18:10:00,
2013-04-28 14:20:00,70.1,33.6,30.20,SSE,155,1.0,10.0,26,0.00,,,0.00,Wunderground v.1.15,2013-04-28 18:20:00,
2013-04-28 14:30:00,70.4,32.9,30.20,South,172,1.0,1.0,25,0.00,,,0.00,Wunderground v.1.15,2013-04-28 18:30:00,
2013-04-28 14:40:00,70.9,32.3,30.19,SSW,210,1.0,1.0,24,0.00,,,0.00,Wunderground v.1.15,2013-04-28 18:40:00,
2013-04-28 14:50:00,71.3,30.5,30.18,SE,138,2.0,10.0,22,0.00,,,0.00,Wunderground v.1.15,2013-04-28 18:50:00,
2013-04-28 15:00:00,71.5,32.8,30.18,SSE,160,1.0,10.0,24,0.00,,,0.00,Wunderground v.1.15,2013-04-28 19:00:00,
2013-04-28 15:10:00,71.5,32.8,30.18,West,276,2.0,10.0,24,0.00,,,0.00,Wunderground v.1.15,2013-04-28 19:10:00,
2013-04-28 15:20:00,70.6,33.0,30.17,West,275,2.0,2.0,25,0.00,,,0.00,Wunderground v.1.15,2013-04-28 19:20:00,
2013-04-28 15:30:00,70.3,31.8,30.17,WNW,286,2.0,2.0,24,0.00,,,0.00,Wunderground v.1.15,2013-04-28 19:30:00,
2013-04-28 15:40:00,71.1,31.4,30.16,SW,215,2.0,2.0,23,0.00,,,0.00,Wunderground v.1.15,2013-04-28 19:40:00,
2013-04-28 15:50:00,72.3,31.3,30.16,SW,221,1.0,1.0,22,0.00,,,0.00,Wunderground v.1.15,2013-04-28 19:50:00,
2013-04-28 16:00:00,72.1,30.0,30.16,SSW,195,1.0,10.0,21,0.00,,,0.00,Wunderground v.1.15,2013-04-28 20:00:00,
2013-04-28 16:10:00,72.0,31.0,30.15,West,262,1.0,10.0,22,0.00,,,0.00,Wunderground v.1.15,2013-04-28 20:10:00,
2013-04-28 16:20:00,72.5,33.6,30.15,ESE,121,2.0,2.0,24,0.00,,,0.00,Wunderground v.1.15,2013-04-28 20:20:00,
2013-04-28 16:30:00,72.5,32.6,30.15,WSW,246,2.0,10.0,23,0.00,,,0.00,Wunderground v.1.15,2013-04-28 20:30:00,
2013-04-28 16:40:00,72.1,31.1,30.14,West,275,2.0,2.0,22,0.00,,,0.00,Wunderground v.1.15,2013-04-28 20:40:00,
2013-04-28 16:50:00,71.6,31.8,30.14,SW,231,2.0,2.0,23,0.00,,,0.00,Wunderground v.1.15,2013-04-28 20:50:00,
2013-04-28 17:00:00,71.8,33.0,30.14,WSW,254,2.0,2.0,24,0.00,,,0.00,Wunderground v.1.15,2013-04-28 21:00:00,
2013-04-28 17:10:00,72.1,34.3,30.14,West,261,1.0,1.0,25,0.00,,,0.00,Wunderground v.1.15,2013-04-28 21:10:00,
2013-04-28 17:20:00,72.0,31.0,30.14,SW,234,1.0,10.0,22,0.00,,,0.00,Wunderground v.1.15,2013-04-28 21:20:00,
2013-04-28 17:30:00,71.6,31.8,30.14,SSE,162,1.0,10.0,23,0.00,,,0.00,Wunderground v.1.15,2013-04-28 21:30:00,
2013-04-28 17:40:00,71.3,31.6,30.14,SW,218,1.0,1.0,23,0.00,,,0.00,Wunderground v.1.15,2013-04-28 21:40:00,
2013-04-28 17:50:00,70.9,33.3,30.14,SSE,158,0.0,10.0,25,0.00,,,0.00,Wunderground v.1.15,2013-04-28 21:50:00,
2013-04-28 18:00:00,70.8,34.2,30.14,SSE,166,1.0,1.0,26,0.00,,,0.00,Wunderground v.1.15,2013-04-28 22:00:00,
2013-04-28 18:10:00,70.8,34.2,30.14,SSW,206,0.0,0.0,26,0.00,,,0.00,Wunderground v.1.15,2013-04-28 22:10:00,
2013-04-28 18:20:00,69.8,33.3,30.13,ESE,114,0.0,0.0,26,0.00,,,0.00,Wunderground v.1.15,2013-04-28 22:20:00,
2013-04-28 18:30:00,68.9,33.5,30.13,SE,136,1.0,1.0,27,0.00,,,0.00,Wunderground v.1.15,2013-04-28 22:30:00,
2013-04-28 18:40:00,68.3,34.8,30.13,SE,143,0.0,2.0,29,0.00,,,0.00,Wunderground v.1.15,2013-04-28 22:40:00,
2013-04-28 18:50:00,67.8,33.5,30.13,SE,137,0.0,0.0,28,0.00,,,0.00,Wunderground v.1.15,2013-04-28 22:50:00,
2013-04-28 19:00:00,67.4,34.0,30.13,SE,137,0.0,0.0,29,0.00,,,0.00,Wunderground v.1.15,2013-04-28 23:00:00,
2013-04-28 19:10:00,67.1,33.8,30.12,SE,137,0.0,8.0,29,0.00,,,0.00,Wunderground v.1.15,2013-04-28 23:10:00,
2013-04-28 19:50:00,63.9,34.2,30.11,SE,137,0.0,8.0,33,0.00,,,0.00,Wunderground v.1.15,2013-04-28 23:50:00,
2013-04-28 19:59:00,63.1,34.3,30.11,SE,135,0.0,8.0,34,0.00,,,0.00,Wunderground v.1.15,2013-04-28 23:59:00,
2013-04-28 20:10:00,62.7,33.9,30.11,SE,135,0.0,8.0,34,0.00,,,0.00,Wunderground v.1.15,2013-04-29 00:10:00,
2013-04-28 20:20:00,63.5,33.9,30.11,East,95,1.0,1.0,33,0.00,,,0.00,Wunderground v.1.15,2013-04-29 00:20:00,
2013-04-28 20:30:00,63.9,33.4,30.11,ENE,68,2.0,2.0,32,0.00,,,0.00,Wunderground v.1.15,2013-04-29 00:30:00,
2013-04-28 20:39:00,62.7,33.9,30.12,East,89,2.0,8.0,34,0.00,,,0.00,Wunderground v.1.15,2013-04-29 00:39:00,
2013-04-28 20:49:00,61.2,35.4,30.13,ESE,121,1.0,1.0,38,0.00,,,0.00,Wunderground v.1.15,2013-04-29 00:49:00,
2013-04-28 21:00:00,60.4,35.3,30.13,ESE,106,1.0,8.0,39,0.00,,,0.00,Wunderground v.1.15,2013-04-29 01:00:00,
2013-04-28 21:10:00,59.9,36.1,30.14,ESE,108,1.0,8.0,41,0.00,,,0.00,Wunderground v.1.15,2013-04-29 01:10:00,
2013-04-28 21:19:00,59.8,36.0,30.14,SE,126,2.0,8.0,41,0.00,,,0.00,Wunderground v.1.15,2013-04-29 01:19:00,
2013-04-28 21:29:00,60.1,36.3,30.14,ESE,121,1.0,1.0,41,0.00,,,0.00,Wunderground v.1.15,2013-04-29 01:29:00,
2013-04-28 21:39:00,60.2,37.0,30.14,SE,126,3.0,9.0,42,0.00,,,0.00,Wunderground v.1.15,2013-04-29 01:39:00,
2013-04-28 21:50:00,60.5,36.7,30.14,SE,126,3.0,8.0,41,0.00,,,0.00,Wunderground v.1.15,2013-04-29 01:50:00,
2013-04-28 22:00:00,60.5,37.3,30.14,ESE,112,3.0,3.0,42,0.00,,,0.00,Wunderground v.1.15,2013-04-29 02:00:00,
2013-04-28 22:10:00,59.9,37.3,30.14,ESE,108,3.0,3.0,43,0.00,,,0.00,Wunderground v.1.15,2013-04-29 02:10:00,
2013-04-28 22:20:00,59.8,38.4,30.14,SE,126,4.0,8.0,45,0.00,,,0.00,Wunderground v.1.15,2013-04-29 02:20:00,
2013-04-28 22:29:00,59.5,38.7,30.14,East,99,4.0,8.0,46,0.00,,,0.00,Wunderground v.1.15,2013-04-29 02:29:00,
2013-04-28 22:40:00,59.6,38.2,30.15,East,93,4.0,4.0,45,0.00,,,0.00,Wunderground v.1.15,2013-04-29 02:40:00,
2013-04-28 22:50:00,59.3,37.9,30.15,ESE,104,2.0,2.0,45,0.00,,,0.00,Wunderground v.1.15,2013-04-29 02:50:00,
2013-04-28 22:59:00,58.9,38.1,30.15,ENE,73,2.0,8.0,46,0.00,,,0.00,Wunderground v.1.15,2013-04-29 02:59:00,
2013-04-28 23:09:00,58.4,38.2,30.15,SE,131,2.0,8.0,47,0.00,,,0.00,Wunderground v.1.15,2013-04-29 03:09:00,
2013-04-28 23:20:00,58.4,38.8,30.15,ESE,105,3.0,3.0,48,0.00,,,0.00,Wunderground v.1.15,2013-04-29 03:20:00,
2013-04-28 23:30:00,58.1,38.5,30.15,ESE,106,2.0,2.0,48,0.00,,,0.00,Wunderground v.1.15,2013-04-29 03:30:00,
2013-04-28 23:40:00,58.0,38.4,30.16,East,85,3.0,8.0,48,0.00,,,0.00,Wunderground v.1.15,2013-04-29 03:40:00,
2013-04-28 23:49:00,57.8,37.7,30.16,East,80,2.0,8.0,47,0.00,,,0.00,Wunderground v.1.15,2013-04-29 03:49:00,